Location: ????????
(41.2031°N, 22.5756°E)
Time: 15:55:46
(UTC+00:00)

Cosmos 1500 - Pass Details

Date: 01 December 2020
Orbit: 498 x 519 km, 82.5° (Epoch: 21 January)

Event Time Altitude Azimuth Distance (km) Brightness Sun altitude
Rises 17:02:17 0° 347° (NNW) 2,636 6.8 -22.2°
Reaches altitude 10° 17:04:27 10° 344° (NNW) 1,748 5.9 -22.6°
Maximum altitude 17:08:12 57° 265° (W) 615 3.8 -23.3°
Drops below altitude 10° 17:11:57 10° 187° (S) 1,742 6.0 -24.0°
Sets 17:14:06 0° 183° (S) 2,626 6.9 -24.4°
